This demonstration page uses our WeatherBlox Daily Observations layout. Learn more.

Left ArrowRight Arrow

40.92501, -98.34201

Hourly Observations for September 9, 2022

Temp ( °F °C ) Dew Point ( °F °C ) Humidity (%) Winds ( mph kmh ) Pressure ( in mb ) Visibility ( mi km ) Precip ( " mm )
12:53 am 00:53 Clear 76 24.4 51 10.6 42 42 SSW 10 17 29.70 1006 10 16 0.00 0.00
1:53 am 01:53 Clear 74 23.3 53 11.7 48 48 NW 7 11 29.74 1007 10 16 0.00 0.00
2:53 am 02:53 Clear 68 20 55 12.8 63 63 Calm 29.75 1007 10 16 0.00 0.00
3:53 am 03:53 Clear 70 21.1 56 13.3 61 61 N 13 20 29.76 1008 10 16 0.00 0.00
4:53 am 04:53 Clear 66 18.9 52 11.1 61 61 N 13 20 29.79 1009 10 16 0.00 0.00
5:53 am 05:53 Clear 64 17.8 54 12.2 70 70 N 9 15 29.80 1009 10 16 0.00 0.00
6:53 am 06:53 Clear 63 17.2 54 12.2 72 72 N 7 11 29.80 1009 10 16 0.00 0.00
7:53 am 07:53 Sunny 64 17.8 53 11.7 67 67 N 10 17 29.85 1011 10 16 0.00 0.00
8:53 am 08:53 Sunny 66 18.9 51 10.6 59 59 N 14 22 29.87 1011 10 16 0.00 0.00
9:53 am 09:53 Sunny 66 18.9 50 10 56 56 N 17 28 29.89 1012 10 16 0.00 0.00
10:53 am 10:53 Sunny 70 21.1 51 10.6 51 51 NNE 18 30 29.90 1012 10 16 0.00 0.00
11:53 am 11:53 Sunny 70 21.1 52 11.1 53 53 NE 20 31 29.88 1012 10 16 0.00 0.00
12:53 pm 12:53 Mostly Sunny 71 21.7 52 11.1 51 51 NNE 15 24 29.89 1012 10 16 0.00 0.00
1:15 pm 13:15 Mostly Cloudy 70 21.1 52 11.1 53 53 N 14 22 29.87 1012 10 16 0.00 0.00
1:28 pm 13:28 Cloudy 69 20.6 52 11.1 54 54 N 16 26 29.88 1012 10 16 0.00 0.00
1:53 pm 13:53 Cloudy 69 20.6 51 10.6 53 53 N 17 28 29.92 1013 10 16 0.00 0.00
2:53 pm 14:53 Mostly Cloudy 70 21.1 52 11.1 53 53 NNE 15 24 29.92 1013 10 16 0.00 0.00
3:53 pm 15:53 Cloudy 69 20.6 53 11.7 57 57 NNE 20 31 29.93 1013 10 16 0.00 0.00
4:53 pm 16:53 Cloudy 68 20 53 11.7 59 59 NNE 22 35 29.94 1014 10 16 0.00 0.00
5:53 pm 17:53 Cloudy 67 19.4 54 12.2 63 63 N 17 28 29.97 1015 10 16 0.00 0.00
6:53 pm 18:53 Cloudy 66 18.9 54 12.2 65 65 N 15 24 30.00 1016 10 16 0.00 0.00
7:53 pm 19:53 Cloudy 63 17.2 53 11.7 70 70 N 22 35 30.00 1016 10 16 0.00 0.00
8:53 pm 20:53 Cloudy 61 16.1 53 11.7 75 75 N 22 35 30.01 1016 10 16 0.00 0.00
9:12 pm 21:12 Cloudy 60 15.6 53 11.7 78 78 N 21 33 30.01 1016 10 16 0.00 0.00
9:53 pm 21:53 Cloudy 60 15.6 52 11.1 75 75 NNE 17 28 30.06 1018 10 16 0.00 0.00
10:53 pm 22:53 Cloudy with Light Rain 58 14.4 53 11.7 84 84 NNE 15 24 30.05 1018 10 16 0.01 0.13
11:12 pm 23:12 Cloudy with Thunderstorms 58 14.4 53 11.7 84 84 N 15 24 30.05 1018 10 16 0.01 0.25
11:21 pm 23:21 Cloudy with Light Rain 57 13.9 53 11.7 87 87 NNE 13 20 30.04 1017 10 16 0.01 0.25
11:29 pm 23:29 Cloudy with Nearby Thunderstorms 57 13.9 53 11.7 87 87 NNE 15 24 30.03 1017 10 16 0.01 0.25
11:53 pm 23:53 Cloudy with Thunderstorms 56 13.3 52 11.1 87 87 NNE 24 39 30.05 1018 7 11 0.03 0.76

Powered by AerisWeather